Location: Białystok
(53.1343°N, 23.1544°E)
Time: 03:12:18
(UTC+01:00)

ISS - Pass Details

Date: 31 January 2019
Orbit: 403 x 411 km, 51.6° (Epoch: 20 February)

Event Time Altitude Azimuth Distance (km) Brightness Sun altitude
Rises 18:11:17 0° 268° (W) 2,337 1.8 -18.3°
Reaches altitude 10° 18:13:22 10° 266° (W) 1,477 0.3 -18.6°
Maximum altitude 18:16:40 69° 183° (S) 445 -3.7 -19.1°
Enters shadow 18:16:54 65° 150° (SSE) 457 -3.8 -19.1°
